Starlink 11313

operational
NORAD ID: 61255 Int'l Des: 2024-175 Owner: SPXS Country: US Constellation: starlink
LEOCIRCULAR

Starlink 11313について

説明を読み込み中...

リアルタイム位置

3D地球を読み込み中...

次回通過

高度履歴

Altitude vs Time

uPlot chart will show altitude changes over time

軌道要素

1 61255U 24175N 26035.50690385 -.00000187 00000-0 33243-5 0 9997
2 61255 53.1581 219.9208 0001854 103.7715 256.3509 15.69707080 78151
Epoch: Feb 4, 2026 • Age: 9 hours

現在のステータス

高度 363.1 km
速度 7.70 km/s
衛星直下点 43.08°N, 163.38°E
打ち上げ日 Sep 25, 2024
運用期間 1.3 years
タイプ internet

技術仕様

分類 Payload
質量 960.00 kg
乾燥質量 910.00 kg
総質量 960.00 kg
長さ 0.30 m
直径 4.10 m
スパン 29.00 m
形状 Box + pan
製造者 SPXS
バスタイプ Starlink V2MD
フェーズステータス In Orbit
所有者/国 SPXS/US

大規模コンステレーション

Loading constellations...